Newport, AR

5:54 AM CST on February 20, 2017 (GMT -0600)
Newport

Weather History for KM19 - December, 2013

Change the Weather History Date:

Tuesday, December 24, 2013

  Actual Average (KBVX) Record (KBVX)
Temperature  
Mean Temperature 24 °F -  
Max Temperature 29 °F 47 °F 76 °F (1955)
Min Temperature 20 °F 27 °F -1 °F (1966)
Degree Days  
Heating Degree Days 40    
Moisture  
Dew Point 17 °F    
Average Humidity 71    
Maximum Humidity 85    
Minimum Humidity 53    
Precipitation  
Precipitation 0.00 in - - ()
Sea Level Pressure  
Sea Level Pressure 30.56 in    
Wind  
Wind Speed 11 mph (NE)    
Max Wind Speed 16 mph    
Max Gust Speed -    
Visibility 10 miles    
Events      
Averages and records for this station are not official NWS values.
T = Trace of Precipitation, MM = Missing Value Source: NWS Daily Summary

Daily Weather History Graph

Daily Weather History Graph

Search for Another Location

Airport or City:

Trip Planner

Search our weather history database for the weather conditions in past years. The results will help you decide how hot, cold, wet, or windy it might be!

Date:

Astronomy

Dec. 24, 2013 Rise Set
Actual Time 7:12 AM CST 4:57 PM CST
Civil Twilight 6:43 AM CST 5:25 PM CST
Nautical Twilight 6:11 AM CST 5:57 PM CST
Astronomical Twilight 5:40 AM CST 6:28 PM CST
Moon 11:51 PM CST (12/24) 11:19 AM CST (12/24)
Length of Visible Light 10h 41m
Length of Day
9h 44m
Waning Gibbous, 58% of the Moon is Illuminated
Dec 24
Waning Gibbous
Dec 25
Last Quarter
Jan 1
New
Jan 7
First Quarter
Jan 15
Full

Hourly Weather History & Observations

Time (CST) Temp. Windchill Dew Point Humidity Pressure Visibility Wind Dir Wind Speed Gust Speed Precip Events Conditions
12:56 AM 27.1 °F 15.4 °F 21.0 °F 78% 30.58 in 10.0 mi NNW 15.0 mph - N/A   Clear
1:56 AM 25.2 °F 13.3 °F 19.0 °F 78% 30.59 in 10.0 mi NNW 13.8 mph - N/A   Clear
2:56 AM 24.1 °F 11.0 °F 18.1 °F 78% 30.60 in 10.0 mi NNW 16.1 mph - N/A   Clear
3:56 AM 22.1 °F 10.0 °F 17.1 °F 81% 30.61 in 10.0 mi North 12.7 mph - N/A   Clear
4:56 AM 22.1 °F 10.0 °F 16.2 °F 78% 30.61 in 10.0 mi North 12.7 mph - N/A   Clear
5:56 AM 21.0 °F 9.3 °F 16.2 °F 81% 30.61 in 10.0 mi North 11.5 mph - N/A   Clear
6:56 AM 20.1 °F 8.8 °F 16.2 °F 85% 30.64 in 10.0 mi NNW 10.4 mph - N/A   Clear
7:56 AM 21.0 °F 9.9 °F 14.0 °F 74% 30.66 in 10.0 mi North 10.4 mph - N/A   Clear
8:56 AM 22.1 °F 11.3 °F 14.0 °F 71% 30.66 in 10.0 mi NNE 10.4 mph - N/A   Clear
9:56 AM 23.0 °F 11.7 °F 11.1 °F 60% 30.67 in 10.0 mi NNE 11.5 mph - N/A   Clear
10:56 AM 24.1 °F 15.2 °F 12.0 °F 60% 30.66 in 10.0 mi NNE 8.1 mph - N/A   Clear
11:56 AM 25.2 °F 17.3 °F 11.1 °F 55% 30.63 in 10.0 mi ENE 6.9 mph - N/A   Clear
12:56 PM 27.1 °F 23.2 °F 14.0 °F 58% 30.59 in 8.0 mi Variable 3.5 mph - N/A   Clear
1:56 PM 29.1 °F 22.1 °F 14.0 °F 53% 30.56 in 10.0 mi SE 6.9 mph - N/A   Clear
2:56 PM 29.1 °F 22.1 °F 16.2 °F 58% 30.54 in 10.0 mi East 6.9 mph - N/A   Clear
3:56 PM 29.1 °F 23.0 °F 16.2 °F 58% 30.53 in 10.0 mi ESE 5.8 mph - N/A   Clear
4:56 PM 28.0 °F 20.8 °F 18.1 °F 66% 30.52 in 10.0 mi ESE 6.9 mph - N/A   Clear
5:56 PM 28.0 °F 21.7 °F 20.1 °F 72% 30.50 in 10.0 mi ESE 5.8 mph - N/A   Clear
6:56 PM 27.1 °F 18.2 °F 19.0 °F 72% 30.50 in 10.0 mi ESE 9.2 mph - N/A   Clear
7:56 PM 27.1 °F 19.7 °F 19.0 °F 72% 30.48 in 10.0 mi ESE 6.9 mph - N/A   Clear
8:56 PM 27.1 °F 18.9 °F 19.0 °F 72% 30.46 in 10.0 mi ESE 8.1 mph - N/A   Clear
9:56 PM 26.1 °F 20.5 °F 20.1 °F 78% 30.47 in 10.0 mi East 4.6 mph - N/A   Clear
10:56 PM 26.1 °F 19.4 °F 21.0 °F 81% 30.45 in 10.0 mi ESE 5.8 mph - N/A   Clear
11:56 PM 26.1 °F - 21.0 °F 81% 30.44 in 10.0 mi Calm Calm - N/A   Clear